Location: St Andrew
(49.4460°N, 2.5750°W)
Time: 05:44:06
(UTC+01:00)

Daily predictions for brighter satellites

Satellite Brightness Start Highest point End
(mag) Time Altitude Azimuth Time Altitude Azimuth Time Altitude Azimuth
Cosmos 540 Rocket 4.3 00:09:07 43° W 00:09:49 46° WNW 00:14:47 10° NNE
Terra 3.6 00:10:18 23° W 00:10:18 23° W 00:14:04 10° NW
In-Cosmos 22 4.2 00:07:56 10° N 00:12:58 75° N 00:12:58 75° N
Cosmos 2219 Rocket 4.0 00:18:42 20° ENE 00:18:42 20° ENE 00:21:03 10° NE
Lacrosse 4 Rocket 3.6 00:20:41 20° NE 00:20:41 20° NE 00:22:10 10° NE
Cosmos 2263 Rocket 3.4 00:14:07 10° NW 00:18:29 29° W 00:18:29 29° W
Meteor 1-24 Rocket 4.4 00:16:23 10° NNW 00:22:08 46° W 00:22:24 46° W
Cosmos 2322 Rocket 3.4 00:24:33 27° W 00:26:50 38° NW 00:32:05 10° NNE
Cosmos 2026 Rocket 4.3 00:21:31 10° N 00:27:29 51° ENE 00:27:29 51° ENE
Cosmos 2322 3.8 00:28:14 72° NNE 00:28:14 72° NNE 00:33:23 10° NNE
H-2A R/B 4.2 00:27:34 15° W 00:27:57 15° W 00:30:45 10° NW
Cosmos 2333 Rocket 3.9 00:33:46 22° ENE 00:33:46 22° ENE 00:36:34 10° NE
Cosmos 2237 Rocket 4.0 00:36:05 19° ENE 00:36:05 19° ENE 00:38:35 10° NE
Cosmos 1953 4.2 00:41:38 29° N 00:41:38 29° N 00:43:41 10° N
Meteor 2-12 Rocket 4.4 00:40:52 73° WNW 00:40:52 73° WNW 00:47:00 10° N
Cosmos 2195 Rocket 4.5 00:37:27 10° N 00:43:26 73° ENE 00:43:26 73° ENE
Cosmos 1818 4.5 00:38:48 10° NNW 00:44:01 42° NE 00:44:38 40° ENE
ALOS 2 4.0 00:45:51 37° NNW 00:45:51 37° NNW 00:48:35 10° NNW
ATLAS 3B R/B 3.9 00:47:08 30° E 00:47:08 30° E 00:52:16 10° NE
COSMOS 2428 3.1 00:49:04 56° NE 00:49:04 56° NE 00:53:36 10° NNE
Cosmos 1655 Rocket 4.0 00:47:52 10° N 00:54:09 73° ENE 00:54:09 73° ENE
H-2A R/B 4.3 00:51:26 10° NNE 00:53:26 27° NNE 00:53:26 27° NNE
Cosmos 2056 Rocket 4.0 00:54:11 10° NNW 00:58:36 58° N 00:58:36 58° N
CZ-4B R/B 4.3 01:04:48 18° NNW 01:04:48 18° NNW 01:05:51 10° NNW
Cosmos 2278 Rocket 2.4 00:58:59 10° NNW 01:03:55 67° N 01:03:55 67° N
Cosmos 2237 4.4 01:07:26 69° N 01:07:26 69° N 01:12:34 10° NNE
SL-16 R/B 4.4 01:19:09 11° W 01:23:10 21° NW 01:27:24 10° N
Cosmos 1634 Rocket 4.1 01:26:21 65° WNW 01:26:21 65° WNW 01:32:39 10° N
CZ-4C R/B 4.2 01:33:09 17° E 01:33:09 17° E 01:35:39 10° ENE
Cosmos 1844 Rocket 4.1 01:26:59 10° NW 01:30:12 27° WNW 01:30:12 27° WNW
CZ-2C R/B 2.9 01:28:43 10° NNE 01:33:36 70° N 01:33:36 70° N
CZ-2C R/B 3.7 01:35:51 47° NNW 01:35:51 47° NNW 01:39:26 10° NNW
Cosmos 2360 Rocket 3.6 01:37:59 27° WNW 01:39:26 30° NW 01:44:25 10° NNE
Cosmos 2279 Rocket 3.9 01:44:19 77° WNW 01:44:19 77° WNW 01:50:23 10° N
Cosmos 2369 Rocket 4.4 01:43:33 10° N 01:47:52 22° NE 01:52:11 10° E
Cosmos 2180 Rocket 4.4 01:56:02 76° WNW 01:56:02 76° WNW 02:02:14 10° N
USA 81 4.4 01:57:24 59° NNW 01:57:24 59° NNW 02:01:50 10° N
Lacrosse 4 Rocket 3.3 01:57:01 27° NW 01:57:01 27° NW 02:00:40 10° NNE
Cosmos 1452 Rocket 4.0 01:54:14 10° NNW 01:58:25 56° NNW 01:58:25 56° NNW
Cosmos 2219 Rocket 2.4 02:00:24 62° NW 02:00:24 62° NW 02:05:44 10° NNE
Cosmos 2266 Rocket 3.9 01:55:41 10° N 02:02:07 90° WSW 02:02:15 87° S
Cosmos 2228 Rocket 4.3 02:05:28 40° NE 02:05:28 40° NE 02:08:49 10° NNE
COSMOS 2455 2.8 02:09:40 80° NW 02:09:40 80° NW 02:15:42 10° NE
SL-16 R/B 2.6 02:13:28 55° E 02:13:28 55° E 02:18:37 10° NE
Cosmos 2333 Rocket 2.4 02:15:46 63° WNW 02:15:47 63° WNW 02:21:32 10° NNE
Cosmos 2297 4.3 02:10:34 10° NW 02:14:50 46° WNW 02:14:50 46° WNW
Cosmos 2237 Rocket 2.3 02:17:55 69° NW 02:17:55 69° NW 02:23:31 10° NNE
ATLAS CENTAUR R/B 3.1 02:15:41 10° NNW 02:19:52 33° NE 02:21:24 26° ENE
SL-08 R/B 4.2 02:19:48 43° ENE 02:19:54 43° ENE 02:24:22 10° N
Cosmos 1980 3.9 02:22:29 60° WNW 02:22:29 60° WNW 02:28:06 10° NNE
Cosmos 1437 Rocket 4.2 02:28:05 38° N 02:28:05 38° N 02:30:43 10° N
Timation 1 Rocket 4.4 02:20:54 10° NNW 02:26:15 66° WNW 02:26:15 66° WNW
Cosmos 1633 Rocket 4.5 02:24:00 10° NNW 02:26:35 32° NW 02:26:35 32° NW
COSMOS 2428 4.3 02:31:04 23° WNW 02:32:45 26° NW 02:37:30 10° NNE
ATLAS 3B R/B 2.9 02:34:22 56° WSW 02:36:10 78° NW 02:43:33 10° NE
Cosmos 2221 4.1 02:37:59 28° NW 02:37:59 28° NW 02:40:51 10° N
Cosmos 1933 Rocket 4.4 02:32:39 10° N 02:35:50 47° NNW 02:35:50 47° NNW
Cosmos 1607 3.9 02:38:05 65° SE 02:38:22 66° ESE 02:44:28 10° NE
Cosmos 1626 4.2 02:37:05 10° NNW 02:38:41 24° NNW 02:38:41 24° NNW
Exosat Rocket 3.9 02:37:09 10° NNW 02:41:22 57° WNW 02:41:22 57° WNW
Cosmos 1470 Rocket 4.5 02:37:57 10° NNW 02:41:03 44° NNW 02:41:03 44° NNW
Cosmos 2278 Rocket 4.2 02:44:20 10° WNW 02:45:44 14° WNW 02:45:44 14° WNW
Cosmos 1340 Rocket 3.8 02:46:55 10° N 02:50:23 43° NE 02:50:23 43° NE
Aureole 2 Rocket 3.7 02:52:19 49° N 02:52:19 49° N 02:55:35 10° NNE
Cosmos 1603 4.2 02:55:00 46° SE 02:55:42 49° ESE 03:01:14 10° NE
ERS-2 4.3 02:55:48 10° NE 02:58:36 20° E 02:58:40 20° E
PSLV R/B 4.1 02:58:32 10° N 03:02:59 57° NW 03:02:59 57° NW
Cosmos 1908 4.2 03:09:37 44° NNW 03:09:37 44° NNW 03:12:30 10° N
Meteor 2-3 Rocket 4.3 03:04:16 10° N 03:09:57 55° ENE 03:13:19 24° SE
Cosmos 1151 Rocket 3.1 03:11:32 76° N 03:11:32 76° N 03:15:37 10° N
IRS-P3 Rocket 4.5 03:09:57 10° NNE 03:15:22 88° ESE 03:16:10 66° SSW
IRS-P3 4.0 03:11:23 10° NNE 03:16:45 80° WNW 03:17:27 66° SW
CZ-2D R/B 3.6 03:12:38 10° NNE 03:17:16 30° E 03:19:58 19° SE
Abrixas rocket 4.5 03:19:27 20° E 03:19:27 20° E 03:20:39 10° E
Cosmos 1048 Rocket 3.9 03:18:15 68° SW 03:18:56 84° WNW 03:24:21 10° NNE
CZ-4C R/B 2.1 03:18:20 63° SW 03:19:20 90° ESE 03:25:36 10° NE
USA 234 4.0 03:17:54 10° ENE 03:23:58 38° SE 03:25:57 31° SSE
Cosmos 1943 4.2 03:23:54 29° SSE 03:25:57 38° ESE 03:31:09 10° NE
Spot 4 Rocket 4.4 03:21:44 10° NNE 03:26:51 59° ESE 03:28:24 42° SSE
IRS-1D 4.5 03:21:57 10° NNE 03:26:54 42° E 03:29:13 27° SSE
USA 238 DEB 3.8 03:26:38 43° WSW 03:29:11 73° NW 03:36:16 10° NE
USA 238 3.8 03:26:45 43° WSW 03:29:17 74° NW 03:36:22 10° NE
Okean O Rocket 4.4 03:27:40 10° ENE 03:29:44 13° E 03:31:46 10° ESE
Cosmos 2369 Rocket 2.1 03:27:02 10° NNW 03:32:41 89° WSW 03:36:38 20° SSE
Cosmos 1892 3.9 03:29:07 10° N 03:32:48 40° ENE 03:34:18 27° SE
NPP 3.7 03:29:50 10° N 03:35:12 67° WNW 03:36:20 52° SW
ADEOS 3.6 03:30:01 10° NNE 03:35:17 75° ESE 03:36:50 46° S
Cosmos 1331 Rocket 3.9 03:31:11 10° NNW 03:36:28 82° WSW 03:38:32 38° SSE
S3M 3.9 03:34:59 46° SSW 03:36:58 75° W 03:43:20 10° N
ARIANE 5 R/B 3.1 03:31:59 10° NNE 03:37:08 54° E 03:39:23 32° SSE
Cosmos 1867 3.8 03:36:09 45° W 03:37:33 59° NW 03:43:00 10° NE
Cosmos 1269 Rocket 4.4 03:38:47 44° W 03:39:48 51° WNW 03:44:59 10° NNE
SL-16 R/B 2.5 03:36:49 21° SSE 03:41:12 87° ENE 03:47:27 10° NNW
NOSS 3-2 (A) 3.5 03:42:25 42° SSW 03:44:40 76° SE 03:51:28 10° NE
Cosmos 2219 Rocket 4.3 03:42:07 11° WNW 03:45:16 17° NW 03:48:53 10° N
Cosmos 1726 2.0 03:46:22 86° WNW 03:46:22 86° WNW 03:50:07 10° N
Cosmos 1356 Rocket 3.3 03:45:11 10° NNW 03:49:06 64° W 03:49:06 64° W
SAR-Lupe-3 4.4 03:50:55 87° NW 03:50:55 87° NW 03:54:27 10° NNW
SeaSat 1 3.0 03:47:07 10° SE 03:51:57 58° NE 03:56:49 10° NNW
Resurs 1-4 Rocket 2.5 03:47:20 10° NNE 03:52:34 59° E 03:55:28 26° S
Cosmos 1386 Rocket 4.4 03:46:27 10° NNW 03:52:45 68° W 03:55:44 32° SSW
Cosmos 839 Rocket 4.5 03:45:29 10° NW 03:53:49 57° WSW 04:00:27 10° SSE
Cosmos 1300 2.8 03:54:57 58° WNW 03:54:57 58° WNW 03:58:47 10° N
Cosmos 546 4.5 03:54:52 70° W 03:55:16 86° SSW 03:59:08 10° ESE
Cosmos 1745 Rocket 4.3 03:50:03 10° NNW 03:56:09 50° W 03:58:18 36° SW
COSMOS 2455 4.5 03:52:47 15° WNW 03:56:30 25° NNW 04:01:25 10° NNE
Cosmos 1943 Rocket 2.6 03:50:51 10° NNW 03:56:33 66° ENE 04:02:10 10° SE
Cosmos 1553 Rocket 4.1 03:54:42 38° SW 03:56:46 55° WNW 04:02:47 10° N
SL-16 R/B 3.4 03:55:21 25° W 03:57:29 32° NW 04:02:34 10° NNE
Cosmos 1709 Rocket 4.0 03:51:37 10° N 03:58:02 87° E 04:03:39 14° S
Cosmos 158 Rocket 3.9 03:57:03 45° SW 03:58:27 67° WNW 04:03:27 10° NNE
Cosmos 1869 Rocket 3.9 03:54:31 10° NNW 03:58:46 46° W 03:58:55 46° W
ATLAS CENTAUR R/B 2.5 03:54:51 10° NW 03:57:35 31° WNW 03:57:35 31° WNW
Cosmos 2333 Rocket 4.3 03:57:46 11° WNW 04:01:16 18° NW 04:05:06 10° N
NOSS 3-2 (C) 3.5 03:58:37 35° SSW 04:01:28 78° SE 04:08:19 10° NE
CENTAUR R/B 4.1 03:57:40 11° SSE 04:02:21 27° ESE 04:07:53 10° ENE
Cosmos 2237 Rocket 4.2 03:59:44 12° WNW 04:02:58 18° NW 04:06:53 10° N
Cosmos 2263 4.1 04:00:22 10° NNW 04:06:09 71° WSW 04:11:54 10° SSE
Cosmos 1184 Rocket 3.8 04:03:23 10° N 04:06:44 47° ENE 04:09:24 15° SSE
Cosmos 1455 3.1 04:05:59 24° SSE 04:08:02 48° E 04:11:49 10° NNE
Cosmos 2242 Rocket 3.7 04:06:44 32° S 04:08:51 80° E 04:13:27 10° NNE
Cosmos 1110 Rocket 4.5 04:07:50 10° NW 04:12:37 37° WSW 04:13:25 35° SW
ERBS 3.0 04:12:41 40° WNW 04:13:28 49° NNW 04:16:55 10° NE
Meteor 1-4 Rocket 3.9 04:15:11 25° WNW 04:15:11 25° WNW 04:17:55 10° NNW
Cosmos 1862 Rocket 4.5 04:12:11 15° SSE 04:15:36 47° E 04:19:50 10° NNE
Cosmos 2251 Rocket 3.5 04:14:19 34° SW 04:16:38 73° WNW 04:21:53 10° NNE
Cosmos 1271 Rocket 3.6 04:16:37 33° W 04:17:06 34° WNW 04:20:49 10° N
Meteor 1-27 4.3 04:19:18 30° SW 04:21:57 59° WNW 04:27:29 10° N
ATLAS 3B R/B 4.1 04:21:37 11° W 04:28:01 33° NNW 04:34:27 10° NE
Cosmos 1656 Rocket 4.3 04:23:02 10° NNW 04:28:26 57° ENE 04:33:45 10° SE
ATLAS 5 CENTAUR R/B 2.5 04:28:46 21° SSW 04:31:50 52° SE 04:37:00 10° NE
ARGOS Delta rocket 4.0 04:28:06 10° NNE 04:32:31 62° E 04:36:32 12° S
ERS-2 2.9 04:29:04 10° N 04:32:32 37° WNW 04:33:30 31° WSW
Coronas F rocket 4.0 04:32:25 10° NW 04:32:26 10° NW 04:32:26 10° NW
UNK 4.3 04:32:59 28° SW 04:34:28 35° W 04:38:44 10° NNW
MOZ.5/SAFIR/RUBIN 5/SL-8 3.8 04:30:01 10° SSE 04:34:39 82° ENE 04:39:19 10° NNW
Cosmos 1408 3.6 04:31:06 10° N 04:34:44 47° ENE 04:38:22 10° SSE
Cosmos 1733 Rocket 3.0 04:33:00 10° NNW 04:37:20 63° W 04:41:07 13° S
Cosmos 1825 2.8 04:37:03 10° N 04:40:49 57° ENE 04:44:33 10° SSE
BREEZE-M DEB (TANK) 3.0 04:45:35 26° S 04:45:35 26° S 04:47:07 10° SE
Meteor 2-10 4.3 04:42:47 20° SSW 04:46:35 58° WNW 04:51:54 10° N
SL-27 R/B 3.6 04:45:31 11° S 04:48:52 43° ESE 04:52:21 10° NE
Cosmos 2292 Rocket 3.9 04:47:18 10° NW 04:49:47 25° W 04:49:47 25° W
Cosmos 1862 3.3 04:47:52 10° N 04:51:53 84° E 04:55:51 10° S
SL-08 ROCKET BODY 4.4 04:46:57 10° N 04:52:59 89° W 04:59:05 10° S
Cosmos 494 Rocket 4.4 04:50:32 21° SW 04:53:54 49° WNW 04:59:01 10° NNE
Cosmos 2285 Rocket 4.0 04:47:31 10° NNW 04:54:00 84° WSW 05:00:24 10° SSE
Abrixas rocket 2.2 04:52:22 23° W 04:54:17 67° S 04:57:37 10° ESE
MOS 1-B 4.4 04:49:26 10° N 04:55:12 67° WNW 05:00:22 13° SSW
UNKNOWN OBJECT B 3.0 04:51:57 10° N 04:55:33 46° WNW 04:57:45 21° SW
CZ-2D R/B 2.6 04:52:30 10° N 04:57:31 45° WNW 05:01:18 17° SW
EO 1 Del DPAF 4.3 04:56:35 21° SW 04:58:03 27° W 05:01:24 10° NW
Cosmos 2315 Rocket 4.2 04:53:05 15° SSW 04:58:04 52° WNW 05:04:14 10° N
Cosmos 1908 Rocket 3.5 05:01:30 10° NNW 05:05:53 69° W 05:10:12 10° S
CZ-4B R/B 2.9 05:02:20 10° NNE 05:05:58 69° ESE 05:09:41 10° S
IRS-1D 4.5 05:01:29 10° N 05:06:04 33° WNW 05:09:42 15° WSW
Cosmos 724 4.5 05:01:24 17° SW 05:06:07 67° NW 05:12:13 10° NE
Cosmos 1869 3.5 05:03:18 15° SSW 05:06:23 50° WNW 05:10:17 10° N
Okean O Rocket 1.6 05:02:12 10° NNE 05:06:43 82° WNW 05:11:10 10° SSW
USA 234 3.3 05:00:47 10° ENE 05:07:23 83° NNW 05:13:17 13° WSW
Cosmos 1892 4.3 05:05:38 10° NW 05:08:18 18° W 05:09:20 16° WSW
CZ-4C R/B 3.7 05:03:33 10° W 05:08:41 32° NNW 05:14:28 10° NE
CZ-2D R/B 3.9 05:04:55 10° N 05:09:12 50° WNW 05:12:59 12° SW
COSMOS 2406 3.7 05:03:49 10° S 05:09:28 61° ESE 05:15:09 10° NE
Cosmos 1943 3.8 05:05:44 16° WSW 05:09:58 43° NW 05:15:22 10° NNE
Okean-O 4.0 05:07:08 10° NNE 05:11:22 40° E 05:15:32 10° SSE
BREEZE-M DEB (TANK) 3.5 05:08:19 10° W 05:12:22 76° N 05:20:44 10° E
Cosmos 2221 Rocket 4.0 05:08:15 10° S 05:12:39 66° E 05:17:02 10° NNE
Cosmos 1933 3.4 05:08:53 10° S 05:13:00 88° WNW 05:17:08 10° N
Cosmos 2369 Rocket 3.6 05:12:38 10° WNW 05:15:54 16° W 05:18:15 13° SW
ARIANE 5 R/B 3.8 05:11:40 10° N 05:15:58 27° WNW 05:19:43 12° WSW
CZ-4B DEB 4.3 05:12:31 10° NNE 05:18:03 87° ESE 05:23:31 10° SSW
CZ-4B R/B 3.1 05:14:38 10° NNE 05:19:59 85° WNW 05:25:17 10° SSW
Sich 1 Rocket 4.1 05:18:13 10° NNW 05:22:19 38° W 05:26:23 10° SSW
SL-16 R/B 3.9 05:21:55 11° SW 05:25:39 18° W 05:29:47 10° NW
Cosmos 1703 Rocket 3.6 05:23:24 10° SSW 05:27:54 81° W 05:32:25 10° N
SeaSat 1 3.4 05:25:43 10° SSW 05:29:47 25° WSW 05:33:52 10° NW
Resurs 1-4 Rocket 3.3 05:27:50 10° N 05:32:03 25° WNW 05:36:16 10° WSW
Cosmos 2151 Rocket 4.4 05:31:16 10° N 05:35:37 57° ENE 05:39:57 10° SSE
Cosmos 389 Rocket 3.5 05:35:23 10° SW 05:38:27 28° WNW 05:41:33 10° N
Cosmos 1943 Rocket 3.2 05:35:25 10° NW 05:39:48 24° WSW 05:44:10 10° SSW
Meteor PRIRODA 4.2 05:37:49 10° NNE 05:41:35 62° ESE 05:45:18 10° S
ADEOS Rocket 3.8 05:35:01 10° NNE 05:42:44 85° ESE 05:50:32 10° SSW
Cosmos 1455 4.0 05:41:28 10° WSW 05:44:04 17° WNW 05:46:41 10° NNW
PSLV R/B 3.6 05:40:07 10° NNE 05:44:31 87° WNW 05:48:55 10° SSW
Aureole 3 Rocket 3.7 05:38:50 10° SSW 05:45:30 71° W 05:50:14 10° N
Nadezhda 1 Rocket 4.1 05:39:49 10° SSW 05:46:00 62° WNW 05:52:21 10° N
ADEOS II 2.3 05:41:55 10° NNE 05:47:13 81° ESE 05:52:29 10° SSW
USA 116 4.4 05:45:13 10° S 05:50:01 61° W 05:55:17 10° NNW
Cosmos 1174 4.2 05:45:22 10° SW 05:50:37 87° WNW 05:54:46 10° NE
MOS 1 Rocket 4.4 05:46:48 10° NNE 05:50:58 43° E 05:55:02 10° S
CENTAUR R/B 2.7 05:45:58 10° SW 05:52:17 77° NW 05:59:29 10° NE
